Location: Caltech
(34.1382°N, 118.1253°W)
Time: 20:01:50
(UTC-07:00)

OPAL - Visible Passes

Search period start: 22 October 2014 00:00
Search period end: 01 November 2014 00:00
Orbit: 744 x 797 km, 100.2° (Epoch: 22 October)

Date Brightness Start Highest point End Pass type
(mag) Time Alt. Az. Time Alt. Az. Time Alt. Az.
22 Oct 8.2 04:53:39 10° SSE 04:58:40 53° ENE 05:03:39 10° N visible
22 Oct 9.1 06:34:51 10° SW 06:37:45 15° W 06:40:40 10° WNW visible
22 Oct 8.9 18:46:14 10° N 18:50:52 40° WNW 18:55:27 10° SW visible
23 Oct 9.6 04:19:37 10° ESE 04:23:40 24° ENE 04:27:42 10° NNE visible
23 Oct 8.1 05:57:37 10° SSW 06:02:19 35° W 06:07:00 10° NW visible
24 Oct 10.6 03:47:54 10° ENE 03:48:52 11° ENE 03:49:50 10° NE visible
24 Oct 7.4 05:21:51 10° SSE 05:27:02 83° WSW 05:32:10 10° NNW visible
24 Oct 9.9 19:15:18 10° NNW 19:19:05 22° WNW 19:22:50 10° WSW visible
25 Oct 8.6 04:47:04 10° SE 04:51:54 43° ENE 04:56:43 10° N visible
25 Oct 8.8 06:27:19 10° SW 06:30:53 19° W 06:34:27 10° NW visible
25 Oct 8.4 18:39:18 10° N 18:44:05 50° WNW 18:48:51 10° SW visible
26 Oct 9.9 04:13:22 10° ESE 04:16:57 20° ENE 04:20:32 10° NNE visible
26 Oct 7.8 05:50:35 10° S 05:55:29 43° WSW 06:00:21 10° NNW visible
26 Oct 10.4 19:45:20 10° NW 19:47:11 12° WNW 19:49:01 10° W visible
27 Oct 7.5 05:15:05 10° SSE 05:20:14 80° ENE 05:25:21 10° NNW visible
27 Oct 9.6 19:08:12 10° N 19:12:20 27° WNW 19:16:27 10° SW visible
28 Oct 9.0 04:40:32 10° SE 04:45:09 35° ENE 04:49:44 10° N visible
28 Oct 8.6 06:19:59 10° SSW 06:24:01 23° W 06:28:03 10° NW visible
28 Oct 8.0 18:32:24 10° N 18:37:17 64° WNW 18:42:10 10° SSW visible
29 Oct 10.2 04:07:15 10° E 04:10:15 16° ENE 04:13:14 10° NNE visible
29 Oct 7.6 05:43:38 10° S 05:48:39 54° WSW 05:53:38 10° NNW visible
29 Oct 10.2 19:37:44 10° NNW 19:40:28 15° WNW 19:43:12 10° W visible
30 Oct 7.8 05:08:22 10° SSE 05:13:27 65° ENE 05:18:28 10° N visible
30 Oct 9.2 19:01:09 10° N 19:05:34 33° WNW 19:09:58 10° SW visible
31 Oct 9.3 04:34:05 10° SE 04:38:24 28° ENE 04:42:41 10° N visible
31 Oct 8.3 06:12:46 10° SSW 06:17:09 29° W 06:21:31 10° NW visible
31 Oct 7.6 18:25:31 10° NNE 18:30:28 80° WNW 18:35:25 10° SSW visible
